Location: Bonningues
(50.7927°N, 2.0150°E)
Time: 17:52:08
(UTC+00:00)

Cosmos 1867 - Pass Details

Date: 08 August 2020
Orbit: 777 x 798 km, 65.0° (Epoch: 25 September)

Event Time Altitude Azimuth Distance (km) Brightness Sun altitude
Rises 20:59:05 0° 197° (SSW) 3,269 6.5 -12.8°
Reaches altitude 10° 21:01:34 10° 191° (SSW) 2,347 5.7 -13.1°
Maximum altitude 21:06:40 45° 120° (ESE) 1,075 3.8 -13.6°
Drops below altitude 10° 21:11:51 10° 50° (NE) 2,374 6.0 -14.2°
Sets 21:14:22 0° 44° (NE) 3,310 6.9 -14.4°
